ARIANE 3 DEB, 26807

Orbit data source: Space-Track

ARIANE 3 DEB, 26807 is space debris in HEO originally from a launch on Thu, 08 Sep 1988 UTC launched from the French Guiana (FRGUI). Debris objects in space refer to the collection of defunct objects orbiting the Earth. Examples of debris include non-operational satellites, rocket bodies, and fragments generated from explosions, collisions, or faulty payload assembly.

Not visible in the next 10 days
Identifier
26807, 1988-081H
Orbit
HEO
Country
Flag of FRFR
Related business
Manufacturer
Unknown
Mission
Spacecraft
Bus & Motor
Unknown
Mass
Unknown
Launch date (UTC)
1988-09-08 (38 years ago)
Launch vehicle
Unknown
Launch site
French Guiana (FRGUI)
Object type
Payload
Rocket body
Debris
Shape & HBR
Unknown shape, 1.1 m
Radar Cross Section
Medium (>0.1 m² and <1 m²)

Expand to show TLE details & history
Last TLE update: 1 day ago

TLE from 1 day ago
0 ARIANE 3 DEB
1 26807U 88081H   26123.14511431 -.00000139  00000-0  00000-0 0  9996
2 26807   6.3705 340.4180 7041380  22.9718 195.1773  2.17367851211623
Epoch: 2026-05-03T03:28Z
TLE epoch observation values (Epoch: 2026-05-03T03:28:57.876Z)
Latitude
-2.87048°
Longitude
-86.26912°
Altitude
36,315.067 km
Speed
1.685 km/s
True Right ascension
12h 28m 05s
True Declination
-2° 52' 03"
Sunlit
Object was in daylight at epoch
Visualization orbit readout
Latitude
Unknown
Longitude
Unknown
Altitude
Unknown
Speed
Unknown
Apparent Right ascension
Unknown
Apparent Declination
Unknown
Sunlit
N/A
Visualization observer readout
Local Sidereal Time
17:42:30
Azimuth
Unknown
Elevation
Unknown
Doppler factor
Unknown
Orbital elements
Apogee altitude
36,528.659 km
Perigee altitude
1,071.078 km
Semi-major axis
25,178.005 km
Eccentricity
0.70414
Inclination
6.3705°
RAAN
340.418°
Arg. of periapsis
22.9718°
True anomaly
183.72334°
Mean anomaly
195.1773°
Eccentric anomaly
188.92102°
Mean motion
0.54326 °/min
Orbital period
662.66 mins
BSTAR
0
Loading maneuver chart data...
Computing Atmospheric mass density...
Loading historical data...
Loading historical data...
Loading historical data...
Loading historical data...
Loading historical data...
Loading historical data...
Loading historical data...

Documentation

Showing up to 5 results
|